TIME,DELAY(SENSOR),PRES,OXYGEN,RAWTEMP,T(OPTODE),TCPHASE,FLUOR,BETA(BETA700),BETA(BETA412),BETA(BETA440),CDOM,C(CSC),ED(ED412.20),ED(ED444.00),ED(ED489.60),ED(ED554.30),LU(LU412.10),LU(LU443.90),LU(LU489.70),LU(LU554.70),COMP,TILTX,TILTY,CHECK
1338866180,5810,900.3599853515625000,33.1553306579589840,565.9884033203125000,4.3001561164855960,56.6383018493652340,55,98,100,78,85,15511,0,0,0,0,2147124105,2147775579,2147572379,2147577261,1246,2,13,41560
1338869776,5812,968.4799804687500000,39.5686492919921900,573.1995239257812000,4.0760941505432130,55.7100601196289060,56,99,101,78,84,15506,0,0,0,0,2147125796,2147778121,2147577408,2147572708,2248,2,13,5806
1338873376,5809,977.3300170898438000,41.3593292236328100,575.2445068359375000,4.0124678611755370,55.4728012084960940,55,97,101,78,83,15509,0,0,0,0,2147128246,2147777782,2147574619,2147573769,483,2,13,54038
1338876976,5809,984.2899780273438000,41.4913406372070300,576.0941162109375000,3.9860270023345947,55.4588088989257800,56,98,100,78,83,15509,0,0,0,0,2147128201,2147774875,2147576914,2147575030,3248,2,13,335
1338880576,5811,992.4299926757812000,41.3231811523437500,575.9401855468750000,3.9908139705657960,55.4858398437500000,55,99,102,78,86,15508,0,0,0,0,2147125549,2147772132,2147571090,2147571456,2744,2,13,22202
1338884176,5810,998.8900146484375000,40.7890205383300800,575.4487304687500000,4.0061149597167970,55.5568313598632800,55,98,100,78,84,15504,0,0,0,0,2147126692,2147773522,2147572699,2147574738,3244,2,13,9150
1338887776,5812,1004.9500122070312000,41.1297988891601560,575.7822265625000000,3.9957349300384520,55.5092582702636700,54,96,100,78,83,15508,0,0,0,0,2147125394,2147776777,2147577636,2147574390,2994,2,13,5632
1338891376,5809,1004.7899780273438000,40.7306289672851560,575.8035278320312000,3.9950699806213380,55.5660781860351560,55,99,101,79,84,15507,0,0,0,0,2147126061,2147773220,2147576164,2147573577,3597,2,13,53092
1338894976,5810,1004.9500122070312000,39.8991889953613300,575.5219726562500000,4.0038337707519530,55.6921806335449200,55,97,101,78,82,15506,0,0,0,0,2147124397,2147773787,2147576009,2147572141,1227,2,13,17706
1338898576,5812,1001.1599731445312000,40.3809089660644500,575.8983154296875000,3.9921190738677980,55.6227989196777340,55,98,102,78,83,15507,0,0,0,0,2147125138,2147779611,2147579867,2147574372,3144,2,13,5792
1338902176,5812,1009.4400024414062000,41.1814498901367200,575.9055786132812000,3.9918920993804930,55.5051803588867200,55,98,102,79,84,15508,0,0,0,0,2147124681,2147772470,2147570441,2147574116,250,2,13,51036
1338905776,5808,1004.9299926757812000,40.9189491271972660,576.8598022460938000,3.9621889591217040,55.5507392883300800,55,99,104,78,85,15449,0,0,0,0,2147124461,2147770770,2147576256,2147574820,128,2,13,40763
1338909376,5810,1003.5599975585938000,40.7827110290527340,576.0592041015625000,3.9871120452880860,55.5664482116699200,55,101,102,78,85,15505,0,0,0,0,2147127149,2147770962,2147571913,2147572443,3489,2,13,55668
1338912976,5809,999.8200073242188000,40.8916893005371100,577.7896728515625000,3.9332311153411865,55.5644111633300800,55,100,100,79,84,15505,0,0,0,0,2147126665,2147771318,2147571995,2147572955,120,2,13,56418
1338916576,5810,995.8099975585938000,41.0552215576171900,577.4498901367188000,3.9438149929046630,55.5403404235839840,55,98,101,78,84,15505,0,0,0,0,2147125330,2147780150,2147575021,2147573184,48,2,13,30890
1338920176,5812,996.2500000000000000,41.9667816162109400,578.3115234375000000,3.9169828891754150,55.4172782897949200,55,98,100,78,84,15505,0,0,0,0,2147126390,2147773613,2147570486,2147570642,2862,2,13,19422
1338923776,5808,1000.5999755859375000,42.0522994995117200,578.1602172851562000,3.9216940402984620,55.4024696350097660,55,99,102,78,84,15506,0,0,0,0,2147126153,2147773001,2147573284,2147572653,2844,2,13,7392
1338927376,5809,1002.7000122070312000,41.7783088684082000,578.0487060546875000,3.9251670837402344,55.4397010803222660,56,99,101,78,84,15505,0,0,0,0,2147122048,2147773412,2147578971,2147572315,95,2,13,36744
1338930976,5808,1006.3099975585938000,41.5971717834472660,577.0853271484375000,3.9551680088043213,55.4585990905761700,54,99,104,78,84,15504,0,0,0,0,2147124909,2147770020,2147574409,2147570752,3340,2,13,264
1338934576,5809,1008.0999755859375000,40.8151016235351560,576.2711791992188000,3.9805130958557130,55.5651588439941400,55,99,102,77,85,15503,0,0,0,0,2147125083,2147778075,2147576877,2147573101,3554,2,13,9138
1338938176,5812,1005.5999755859375000,42.0813598632812500,578.3840942382812000,3.9147210121154785,55.3971481323242200,55,101,102,78,82,15505,0,0,0,0,2147126116,2147774217,2147572096,2147574509,3469,2,13,1634
1338941776,5808,1001.9000244140625000,41.2155990600585940,577.6748046875000000,3.9368109703063965,55.5192985534668000,55,98,101,77,84,15502,0,0,0,0,2147123574,2147771721,2147573028,2147571446,192,2,13,42034
1338945376,5810,1009.9600219726562000,41.3144798278808600,577.7318115234375000,3.9350380897521973,55.5023689270019500,54,102,101,76,85,15503,0,0,0,0,2147122998,2147773796,2147570221,2147571794,3428,2,13,24065
1338948976,5808,1008.3699951171875000,40.9607200622558600,576.7476806640625000,3.9656770229339600,55.5479698181152340,55,98,102,78,83,15500,0,0,0,0,2147126098,2147774765,2147573101,2147570505,388,2,13,7904
1338952576,5810,1010.6900024414062000,41.0211105346679700,577.5034179687500000,3.9421501159667970,55.5455017089843750,54,105,101,78,83,15501,0,0,0,0,2147124086,2147777444,2147570660,2147574921,98,2,13,56225
1338956176,5807,1011.2999877929688000,41.4848518371582000,577.8134155273438000,3.9324970245361330,55.4776306152343750,54,99,101,80,84,15505,0,0,0,0,2147122514,2147774427,2147573531,2147571510,118,2,13,32682
1338959776,5813,1014.5000000000000000,41.4622611999511700,577.5689697265625000,3.9401049613952637,55.4830017089843750,55,98,102,79,84,15502,0,0,0,0,2147125860,2147772754,2147572717,2147572864,18,2,13,50360
1338963376,5807,1021.4199829101562000,40.9461517333984400,575.8565063476562000,3.9934220314025880,55.5373191833496100,55,99,100,78,84,15504,0,0,0,0,2147121462,2147778176,2147577060,2147572169,3586,2,13,45442
1338966976,5809,1012.3099975585938000,39.6262512207031250,576.1232299804688000,3.9851210117340090,55.7412300109863300,56,98,102,78,83,15504,0,0,0,0,2147124516,2147774537,2147575195,2147574500,158,2,13,13555
1338970576,5808,1016.2800292968750000,41.5122299194335940,576.8090209960938000,3.9637720584869385,55.4638595581054700,56,99,102,79,84,15504,0,0,0,0,2147128073,2147778633,2147575488,2147572068,782,2,13,2987
1338974176,5810,1007.5900268554688000,41.3453407287597660,577.7780151367188000,3.9335989952087402,55.4992599487304700,55,98,102,78,83,15504,0,0,0,0,2147124150,2147771904,2147577709,2147574747,3203,2,13,18623
1338977776,5809,1008.9500122070312000,41.9802818298339840,578.2402954101562000,3.9191989898681640,55.4135818481445300,56,100,102,79,83,15504,0,0,0,0,2147127131,2147773101,2147574948,2147571529,377,2,13,15028
1338981376,5811,1010.0599975585938000,41.6096305847168000,578.0548706054688000,3.9249730110168457,55.4659004211425800,55,99,101,82,83,15503,0,0,0,0,2147126244,2147775835,2147572827,2147572580,1158,2,13,13201
1338984976,5813,1008.2100219726562000,41.8928604125976560,578.3839721679688000,3.9147241115570070,55.4269714355468750,55,98,101,77,84,15503,0,0,0,0,2147123392,2147774710,2147576292,2147575140,126,2,13,12104
1338988576,5810,1013.7899780273438000,41.9020385742187500,578.0452880859375000,3.9252719879150390,55.4230117797851560,55,98,101,78,84,15503,0,0,0,0,2147121590,2147776329,2147573732,2147573238,148,2,13,28440
1338992176,5811,1015.0100097656250000,41.6051597595214840,578.6328735351562000,3.9069709777832030,55.4700088500976560,55,98,101,78,84,15502,0,0,0,0,2147124809,2147773805,2147572781,2147573065,420,2,13,10354
1338995776,5810,1010.5599975585938000,41.4819793701171900,577.5170288085938000,3.9417250156402590,55.4800109863281250,54,99,102,78,82,15500,0,0,0,0,2147127030,2147767442,2147574436,2147570944,27,2,13,20700
1338999376,5810,1011.3200073242188000,41.0544395446777340,578.1422729492188000,3.9222509860992430,55.5450706481933600,56,99,103,78,83,15493,0,0,0,0,2147126107,2147776640,2147574043,2147574180,3387,2,13,27048
1339002976,5812,1014.9199829101562000,41.1672706604003900,578.2600708007812000,3.9185829162597656,55.5342216491699200,55,98,101,78,83,15494,0,0,0,0,2147123081,2147773046,2147579574,2147574272,89,2,13,16308
1339006576,5809,1009.5000000000000000,42.2595405578613300,578.8302001953125000,3.9008240699768066,55.3767204284668000,55,98,101,78,83,15497,0,0,0,0,2147125357,2147771620,2147574491,2147574281,594,2,13,18889
1339010176,5810,1016.5399780273438000,41.2193489074707000,578.0999755859375000,3.9235689640045166,55.5197410583496100,55,100,102,79,85,15498,0,0,0,0,2147126921,2147770130,2147575286,2147572818,249,2,13,7773
1339010757,5806,1018.9400024414062000,41.3471908569335940,577.8682861328125000,3.9307820796966553,55.5001983642578100,55,99,102,80,83,15497,0,0,0,0,2147125714,2147772900,2147575844,2147573979,303,2,13,38184
